• In Uzbekistan
  • List of Countries
  • For 7 days
  • Water Temperature
  • Weather Map
  • Weather Widgets
  • user-avatar
    Login

    Hourly Weather Baraki Barak

    Today, 21 January, Tuesday

    Time Temperature Precipitation Wind Pressure Humidity
    00:00 -5°C° 0.4 mm 0 mps 592 mmHg 96%
    01:00 -5°C° 0.4 mm 0 mps 592 mmHg 96%
    02:00 -5°C° 0.4 mm 0 mps 592 mmHg 96%
    03:00 -5°C° 0.2 mm 0 mps 592 mmHg 96%
    04:00 -6°C° 0.2 mm 0 mps 592 mmHg 96%
    05:00 -7°C° 0 mm 0 mps 591 mmHg 96%
    06:00 -7°C° 0 mm 0 mps 591 mmHg 95%
    07:00 -8°C° 0 mm 0 mps 592 mmHg 94%
    08:00 -8°C° 0 mm 1 mps 592 mmHg 92%
    09:00 -7°C° 0 mm 1 mps 592 mmHg 89%
    10:00 -4°C° 0 mm 1 mps 593 mmHg 87%
    11:00 -3°C° 0 mm 1 mps 593 mmHg 84%
    12:00 -2°C° 0 mm 1 mps 593 mmHg 83%
    13:00 -2°C° 0 mm 1 mps 593 mmHg 83%
    14:00 -1°C° 0 mm 1 mps 593 mmHg 82%
    15:00 -2°C° 0 mm 1 mps 592 mmHg 83%
    16:00 -3°C° 0 mm 1 mps 592 mmHg 85%
    17:00 -6°C° 0 mm 1 mps 592 mmHg 86%
    18:00 -6°C° 0 mm 1 mps 592 mmHg 86%
    19:00 -7°C° 0 mm 1 mps 593 mmHg 87%
    20:00 -8°C° 0 mm 1 mps 594 mmHg 87%
    21:00 -8°C° 0 mm 1 mps 594 mmHg 87%
    22:00 -8°C° 0 mm 1 mps 594 mmHg 87%
    23:00 -9°C° 0 mm 1 mps 594 mmHg 87%

    Tomorrow, 22 January, Wednesday

    Time Temperature Precipitation Wind Pressure Humidity
    00:00 -9°C° 0 mm 1 mps 594 mmHg 87%
    01:00 -10°C° 0 mm 1 mps 594 mmHg 86%
    02:00 -10°C° 0 mm 1 mps 594 mmHg 86%
    03:00 -10°C° 0 mm 1 mps 594 mmHg 86%
    04:00 -11°C° 0 mm 1 mps 594 mmHg 86%
    05:00 -11°C° 0 mm 1 mps 594 mmHg 85%
    06:00 -12°C° 0 mm 1 mps 594 mmHg 84%
    07:00 -12°C° 0 mm 1 mps 594 mmHg 83%
    08:00 -12°C° 0 mm 1 mps 594 mmHg 81%
    09:00 -10°C° 0 mm 1 mps 595 mmHg 79%
    10:00 -9°C° 0 mm 1 mps 596 mmHg 77%
    11:00 -7°C° 0 mm 1 mps 596 mmHg 75%
    12:00 -6°C° 0 mm 1 mps 596 mmHg 75%
    13:00 -6°C° 0 mm 1 mps 596 mmHg 75%
    14:00 -5°C° 0 mm 0 mps 595 mmHg 75%
    15:00 -6°C° 0 mm 0 mps 595 mmHg 77%
    16:00 -8°C° 0 mm 0 mps 594 mmHg 79%
    17:00 -9°C° 0 mm 0 mps 593 mmHg 81%
    18:00 -10°C° 0 mm 0 mps 594 mmHg 78%
    19:00 -10°C° 0 mm 0 mps 594 mmHg 75%
    20:00 -11°C° 0 mm 1 mps 595 mmHg 71%
    21:00 -11°C° 0 mm 1 mps 595 mmHg 69%
    22:00 -12°C° 0 mm 1 mps 595 mmHg 67%
    23:00 -12°C° 0 mm 1 mps 595 mmHg 64%

    Day after tomorrow, 23 January, Thursday

    Time Temperature Precipitation Wind Pressure Humidity
    00:00 -12°C° 0 mm 1 mps 594 mmHg 63%
    01:00 -12°C° 0 mm 1 mps 594 mmHg 62%
    02:00 -12°C° 0 mm 1 mps 594 mmHg 61%
    03:00 -12°C° 0 mm 1 mps 594 mmHg 61%
    04:00 -13°C° 0 mm 1 mps 593 mmHg 61%
    05:00 -13°C° 0 mm 1 mps 593 mmHg 60%
    06:00 -13°C° 0 mm 1 mps 593 mmHg 60%
    07:00 -13°C° 0 mm 1 mps 593 mmHg 60%
    08:00 -12°C° 0 mm 1 mps 594 mmHg 59%
    09:00 -10°C° 0 mm 1 mps 594 mmHg 60%
    10:00 -8°C° 0 mm 1 mps 595 mmHg 61%
    11:00 -6°C° 0 mm 1 mps 596 mmHg 62%
    12:00 -4°C° 0 mm 1 mps 595 mmHg 63%
    13:00 -3°C° 0 mm 1 mps 595 mmHg 65%
    14:00 -2°C° 0 mm 1 mps 594 mmHg 66%
    15:00 -5°C° 0 mm 0 mps 593 mmHg 67%
    16:00 -6°C° 0 mm 0 mps 593 mmHg 68%
    17:00 -7°C° 0 mm 0 mps 592 mmHg 69%
    18:00 -7°C° 0 mm 0 mps 593 mmHg 66%
    19:00 -8°C° 0 mm 0 mps 593 mmHg 64%
    20:00 -8°C° 0 mm 1 mps 593 mmHg 62%
    21:00 -8°C° 0 mm 1 mps 593 mmHg 60%
    22:00 -9°C° 0 mm 1 mps 593 mmHg 58%
    23:00 -9°C° 0 mm 0 mps 593 mmHg 56%

    24 January, Friday

    Time Temperature Precipitation Wind Pressure Humidity
    00:00 -9°C° 0 mm 0 mps 593 mmHg 55%
    01:00 -9°C° 0 mm 0 mps 593 mmHg 54%
    02:00 -9°C° 0 mm 0 mps 592 mmHg 53%
    03:00 -9°C° 0 mm 0 mps 592 mmHg 53%
    04:00 -9°C° 0 mm 0 mps 592 mmHg 53%
    05:00 -9°C° 0 mm 1 mps 592 mmHg 53%
    06:00 -8°C° 0 mm 1 mps 592 mmHg 53%
    07:00 -8°C° 0 mm 1 mps 592 mmHg 54%
    08:00 -7°C° 0 mm 1 mps 593 mmHg 54%
    09:00 -5°C° 0 mm 0 mps 593 mmHg 56%
    10:00 -4°C° 0 mm 0 mps 593 mmHg 57%
    11:00 -2°C° 0 mm 0 mps 594 mmHg 59%
    12:00 -1°C° 0 mm 0 mps 593 mmHg 62%
    13:00 0°C° 0 mm 1 mps 593 mmHg 65%
    14:00 +1°C° 0 mm 1 mps 592 mmHg 68%
    15:00 +1°C° 0 mm 1 mps 592 mmHg 70%
    16:00 0°C° 0 mm 1 mps 592 mmHg 73%
    17:00 0°C° 0 mm 1 mps 592 mmHg 76%
    18:00 -1°C° 0 mm 1 mps 592 mmHg 77%
    19:00 -1°C° 0 mm 1 mps 592 mmHg 78%
    20:00 -2°C° 0 mm 1 mps 592 mmHg 78%
    21:00 -3°C° 0 mm 1 mps 592 mmHg 79%
    22:00 -3°C° 0 mm 1 mps 592 mmHg 80%
    23:00 -4°C° 0 mm 1 mps 592 mmHg 80%

    25 January, Saturday

    Time Temperature Precipitation Wind Pressure Humidity
    00:00 -4°C° 0 mm 1 mps 592 mmHg 80%
    01:00 -4°C° 0 mm 1 mps 592 mmHg 79%
    02:00 -6°C° 0 mm 1 mps 591 mmHg 79%
    03:00 -6°C° 0 mm 1 mps 591 mmHg 79%
    04:00 -7°C° 0 mm 1 mps 591 mmHg 79%
    05:00 -7°C° 0 mm 1 mps 591 mmHg 80%
    06:00 -7°C° 0 mm 1 mps 591 mmHg 79%
    07:00 -8°C° 0 mm 1 mps 591 mmHg 79%
    08:00 -8°C° 0 mm 1 mps 591 mmHg 78%
    09:00 -6°C° 0 mm 1 mps 592 mmHg 77%
    10:00 -3°C° 0 mm 1 mps 593 mmHg 76%
    11:00 -2°C° 0 mm 0 mps 594 mmHg 75%
    12:00 -2°C° 0 mm 0 mps 593 mmHg 76%
    13:00 -1°C° 0 mm 0 mps 593 mmHg 77%
    14:00 0°C° 0 mm 0 mps 592 mmHg 78%
    15:00 -2°C° 0 mm 0 mps 592 mmHg 79%
    16:00 -3°C° 0 mm 0 mps 591 mmHg 81%
    17:00 -4°C° 0 mm 0 mps 591 mmHg 83%
    18:00 -5°C° 0 mm 0 mps 591 mmHg 82%
    19:00 -5°C° 0 mm 0 mps 591 mmHg 82%
    20:00 -6°C° 0 mm 1 mps 592 mmHg 82%
    21:00 -7°C° 0 mm 1 mps 592 mmHg 82%
    22:00 -7°C° 0 mm 1 mps 592 mmHg 81%
    23:00 -7°C° 0 mm 1 mps 592 mmHg 81%

    26 January, Sunday

    Time Temperature Precipitation Wind Pressure Humidity
    00:00 -8°C° 0 mm 1 mps 591 mmHg 81%
    01:00 -8°C° 0 mm 1 mps 591 mmHg 80%
    02:00 -9°C° 0 mm 1 mps 591 mmHg 80%
    03:00 -9°C° 0 mm 1 mps 590 mmHg 79%
    04:00 -9°C° 0 mm 1 mps 590 mmHg 79%
    05:00 -10°C° 0 mm 1 mps 590 mmHg 79%
    06:00 -10°C° 0 mm 1 mps 590 mmHg 78%
    07:00 -10°C° 0 mm 1 mps 590 mmHg 77%
    08:00 -10°C° 0 mm 1 mps 590 mmHg 77%
    09:00 -8°C° 0 mm 1 mps 591 mmHg 75%
    10:00 -6°C° 0 mm 1 mps 591 mmHg 74%
    11:00 -3°C° 0 mm 1 mps 592 mmHg 73%
    12:00 -3°C° 0 mm 1 mps 591 mmHg 73%
    13:00 -3°C° 0 mm 0 mps 591 mmHg 73%
    14:00 -2°C° 0 mm 0 mps 590 mmHg 74%
    15:00 -4°C° 0 mm 0 mps 590 mmHg 75%
    16:00 -5°C° 0 mm 0 mps 589 mmHg 77%
    17:00 -6°C° 0 mm 0 mps 589 mmHg 78%
    18:00 -7°C° 0 mm 0 mps 589 mmHg 77%
    19:00 -7°C° 0 mm 0 mps 589 mmHg 76%
    20:00 -8°C° 0 mm 1 mps 589 mmHg 75%
    21:00 -8°C° 0 mm 1 mps 589 mmHg 74%
    22:00 -9°C° 0 mm 1 mps 589 mmHg 74%
    23:00 -9°C° 0 mm 1 mps 589 mmHg 74%
    Show more